Regional Weather Roundup
Issued by NWS

Home | Current Version | Previous Version | Graphics & Text | Print | Product List | Glossary On
Versions: 1 2 3 4 5 6 7 8 9 10 11 12 13 14 15 16 17 18 19 20 21 22 23 24 25 26 27 28 29 30 31 32 33 34 35 36 37 38 39 40 41 42 43 44 45 46 47 48 49 50
062
ASUS45 KBOU 090307
RWRCO

WEATHER ROUNDUP FOR COLORADO
NATIONAL WEATHER SERVICE DENVER/BOULDER CO
800 PM MST THU DEC 08 2016

NOTE: "FAIR" INDICATES FEW OR NO CLOUDS BELOW 12000 FEET WITH NO
SIGNIFICANT WEATHER AND/OR OBSTRUCTIONS TO VISIBILITY.

COZ001>005-013-030-031-090400-
...NORTHWEST COLORADO...

CITY           SKY/WX    TMP DP  RH WIND       PRES   REMARKS
CRAIG          CLOUDY    20  12  71 E10       30.17F WCI   9
HAYDEN         MOCLDY    16   9  73 SE7       30.17S WCI   6
MEEKER         CLOUDY    25  16  68 NE3       30.17F
MOUNT WERNER   NOT AVBL
STEAMBOAT SPGS CLOUDY    13  10  90 CALM      30.17S
WALDEN           N/A     18  12  79 SE12      30.09F WCI   5
$$

COZ006>008-011-090400-
...WEST CENTRAL VALLEYS...

CITY           SKY/WX    TMP DP  RH WIND       PRES   REMARKS
GRAND JUNCTION CLOUDY    26  15  63 CALM      30.27F
MONTROSE       CLOUDY    28  15  58 S5        30.28S WCI  23
EAGLE          FLURRIES  17  12  80 CALM      30.24F
RIFLE            N/A     24  10  55 E3        30.26S
DELTA          CLOUDY    32  11  42 CALM      30.28F
NUCLA          MOCLDY    30   9  40 CALM      30.31R
$$

COZ017>023-064>068-090400-
...SOUTHWEST COLORADO...

CITY           SKY/WX    TMP DP  RH WIND       PRES   REMARKS
DURANGO        MOCLDY    23  11  60 NE5       30.30F WCI  17
CORTEZ         CLOUDY    28  21  75 NE5       30.29S WCI  23
PAGOSA SPRINGS MOCLDY    27  10  49 CALM      30.31S
TELLURIDE      CLOUDY    29  19  67 SE6       30.27S WCI  23
WOLF CREEK PAS FLURRIES   9   9 100 SW24      30.27F WCI -12
$$

COZ009-010-012-014-032>034-037-058>063-090400-
...CENTRAL COLORADO...

CITY           SKY/WX    TMP DP  RH WIND       PRES   REMARKS
ASPEN          NOT AVBL
BUENA VISTA    CLOUDY    29  15  56 N14       30.14F WCI  19
COPPER MTN     LGT SNOW  19  12  73 MISG      30.09S VSB 3/4
BERTHOUD PASS  LGT SNOW  10  -2  56 W22G37    30.01F VSB 3/4 WCI  -9
COTTONWOOD PAS LGT SNOW  25  19  80 W10G28    30.12R WCI  15
GUNNISON       LGT SNOW  16  13  88 W5        30.30R FOG     WCI   9
KREMMLING      LGT SNOW  14   9  79 CALM      30.19F
LEADVILLE      LGT SNOW  17  13  84 E3        30.10S FOG
MONARCH PASS   SNOW      12  10  92 W32       30.25F VSB 1/2 WCI -10
SALIDA         CLOUDY    32  14  46 CALM      30.23F
SUNLIGHT       CLOUDY    16  12  86 SW24G33   30.15F FOG     WCI  -3
WILKERSON PASS MOCLDY    14  10  85 SW21G30   30.07S WCI  -4
$$

COZ069>075-090400-
...SAN LUIS VALLEY/SANGRE DE CRISTO MOUNTAINS...

CITY           SKY/WX    TMP DP  RH WIND       PRES   REMARKS
ALAMOSA        FAIR      10   5  80 CALM      30.25R
LA VETA PASS   FAIR      21   9  58 NE25G47   30.12F WCI   4
SAGUACHE       MOCLDY    21  14  73 N6        30.25S WCI  14
$$

COZ035-036-038>040-090400-
...NORTHERN COLORADO FRONT RANGE...

CITY           SKY/WX    TMP DP  RH WIND       PRES   REMARKS
DENVER INTL AP MOCLDY     8   3  80 CALM      30.23F
DMNS CITY PARK   N/A      9   3  77 NE5       30.24F WCI   0
AURORA         MOCLDY     6   3  88 CALM      30.22F
FRONT RANGE AP MOCLDY    10   7  85 CALM      30.24F
ERIE MUNI ARPT FAIR       6   4  89 CALM      30.25F
BOULDER MUN AP FLURRIES   9   5  85 CALM      30.24F
CENTENNIAL     MOCLDY     8   4  83 CALM      30.20F
BROOMFIELD     MOCLDY     9   5  85 CALM      30.22F
FORT COLLINS   FAIR      10   3  72 CALM      30.28S
LONGMONT       FAIR      10   5  79 CALM      30.29F
$$

COZ041-046-047-076>085-087-088-090400-
...PIKES PEAK/PALMER DIVIDE AND SOUTHERN FOOTHILLS...

CITY           SKY/WX    TMP DP  RH WIND       PRES   REMARKS
COLO. SPRINGS  LGT SNOW  11   7  84 E6        30.26S FOG     WCI   1
A. F. ACADEMY  CLOUDY    10   7  85 S9        30.19F WCI  -2
SCHRIEVER AFB  NOT AVBL
ELLICOTT       FAIR     N/A N/A N/A SE8         N/A
FALCON         FLURRIES   8   6  92 SW6       30.21F WCI  -2
FORT CARSON    LGT SNOW  13   9  83 SE10      30.24F WCI   0
LIMON          FAIR      10   1  67 S10       30.29F WCI  -4
MONUMENT HILL  LGT SNOW   9   5  85 S23       30.14F WCI -12
TRINIDAD       FAIR      13   7  77 NW9       30.26F WCI   1
$$

COZ042>045-048>051-090-091-090400-
...NORTHEAST COLORADO...

CITY           SKY/WX    TMP DP  RH WIND       PRES   REMARKS
GREELEY ARPT   FAIR      11   5  77 N5        30.30F WCI   3
AKRON          CLOUDY    10   4  76 S9        30.32F WCI  -3
BURLINGTON     FAIR      11   2  67 S14       30.40F WCI  -5
WRAY           FAIR       9   1  72 SE6       30.43F WCI  -1
STERLING       MOCLDY    12   5  73 S9        30.35F WCI   0
HOLYOKE        FAIR       3  -4  72 S5        30.43F WCI  -6
FORT MORGAN    FAIR      13   6  70 SE8       30.31F WCI   2
$$

COZ086-089-092>099-090400-
...SOUTHEAST COLORADO...

CITY           SKY/WX    TMP DP  RH WIND       PRES   REMARKS
PUEBLO         FAIR      14   2  58 N7        30.33F WCI   4
LA JUNTA       FAIR      18   5  57 E13       30.34F WCI   5
LAMAR          FAIR      15  -1  49 SE8       30.42F WCI   4
SPRINGFIELD      N/A     18   3  52 S17       30.39F WCI   3
$$




USA.gov is the U.S. government's official web portal to all federal, state and local government web resources and services.